SB KEPS @ AMSAT $ORB11055.N 2Line Orbital Elements 11055.AMSAT
HR AMSAT ORBITAL ELEMENTS FOR AMATEUR SATELLITES IN NASA FORMAT FROM WA5QGD FORT WORTH,TX February 24, 2011 Send Subscribe/unsubscribe to KEPS at http://www.amsat.org/mailman/listinfo/keps BID: ORB11055.N
DECODE 2-LINE ELSETS WITH THE FOLLOWING KEY: 1 AAAAAU 00 0 0 BBBBB.BBBBBBBB .CCCCCCCC 00000-0 00000-0 0 DDDZ 2 AAAAA EEE.EEEE FFF.FFFF GGGGGGG HHH.HHHH III.IIII JJ.JJJJJJJJKKKKKZ KEY: A-CATALOGNUM B-EPOCHTIME C-DECAY D-ELSETNUM E-INCLINATION F-RAAN G-ECCENTRICITY H-ARGPERIGEE I-MNANOM J-MNMOTION K-ORBITNUM Z-CHECKSUM
TO ALL RADIO AMATEURS BT
AO-07 1 07530U 74089B 11055.62960593 -.00000027 00000-0 10000-3 0 125 2 07530 101.3949 066.6080 0011972 139.4532 220.7428 12.53581365660081 FO-29 1 24278U 96046B 11054.90986410 .00000014 00000-0 49649-4 0 05566 2 24278 098.5276 214.3997 0350564 190.7667 168.5825 13.52957857717143 SO-33 1 25509U 98061B 11054.66265538 .00000283 00000-0 44231-4 0 09112 2 25509 031.4351 166.3700 0353905 328.7396 029.2612 14.28368733644030 RS-22 1 27939U 03042A 11055.62129387 .00000144 00000-0 36423-4 0 205 2 27939 097.8595 274.9080 0013559 346.2162 013.8662 14.63514972395872 VO-52 1 28650U 05017B 11054.80044657 .00000088 00000-0 17485-4 0 7262 2 28650 097.6579 102.9326 0027133 170.7824 189.3841 14.81916331313956 SO-67 1 35870U 09049F 11055.79124630 .00001460 00000-0 68141-4 0 5923 2 35870 097.2969 102.7657 0001771 320.0210 151.7572 15.21371028 79856 HO-68 1 36122U 09072B 11055.67095831 -.00000045 00000-0 00000 0 0 1422 2 36122 100.4305 118.1270 0008044 120.1606 240.0312 13.16284259 57433 UO-11 1 14781U 84021B 11054.75480058 .00000176 00000-0 30419-4 0 4781 2 14781 098.0193 111.7452 0009692 140.6678 219.5209 14.79894199449019 AO-16 1 20439U 90005D 11054.82143116 .00000050 00000-0 34401-4 0 01273 2 20439 098.3700 008.3114 0011356 135.9221 224.2874 14.31896785101398 LO-19 1 20442U 90005G 11055.75717457 .00000130 00000-0 63796-4 0 340 2 20442 098.3333 014.0039 0012451 127.2880 232.9449 14.32124923101704 AO-27 1 22825U 93061C 11055.79654145 .00000079 00000-0 47799-4 0 7568 2 22825 098.5188 002.6381 0007494 246.1450 113.8957 14.29328140908135 IO-26 1 22826U 93061D 11054.97660765 .00000032 00000-0 29373-4 0 04950 2 22826 098.5133 002.3485 0008103 242.8590 117.1767 14.29587341908130 GO-32 1 25397U 98043D 11055.84729987 -.00000154 00000-0 -50061-4 0 4146 2 25397 098.3224 054.4499 0000499 201.9733 158.1425 14.23196263655984 NO-44 1 26931U 01043C 11055.61855193 -.00000089 00000-0 -22731-5 0 6872 2 26931 067.0517 273.5822 0007115 271.7572 088.2718 14.29634718490836 SO-50 1 27607U 02058C 11055.26523214 .00000181 00000-0 50130-4 0 3991 2 27607 064.5594 310.7835 0059890 347.5453 012.4186 14.71651475439476 CO-55 1 27844U 03031E 11055.57074896 .00000092 00000-0 62658-4 0 522 2 27844 098.7080 065.9015 0009767 159.2087 200.9492 14.20771068396927 CO-57 1 27848U 03031J 11054.58121540 .00000072 00000-0 53660-4 0 9985 2 27848 098.7140 064.0789 0009717 166.4871 193.6568 14.20555675396737 AO-51 1 28375U 04025K 11055.53403099 .00000053 00000-0 28482-4 0 9043 2 28375 098.0856 039.9741 0085098 051.7120 309.1694 14.40725937349844 CP3 1 31129U 07012N 11054.61780711 .00000204 00000-0 57111-4 0 08060 2 31129 097.9104 085.3421 0102344 173.1895 187.0717 14.52380442204357 CO-65 1 32785U 08021C 11054.77842746 .00000283 00000-0 42344-4 0 09255 2 32785 097.8619 120.7827 0014801 181.7302 178.3814 14.81835653152745 KKS-1 1 33493U 09002B 11055.77701404 .00001108 00000-0 14846-3 0 3401 2 33493 098.1089 182.8877 0020687 047.1155 313.1793 14.81345045112877 SOHLA-1 1 33496U 09002E 11054.75357691 .00000221 00000-0 45474-4 0 03436 2 33496 098.0686 165.8113 0007506 120.1818 240.0149 14.69559447111825 TISAT-1 1 36799U 10035E 11055.80627504 .00000675 00000-0 95602-4 0 6145 2 36799 098.1148 122.8993 0014206 281.3249 078.6355 14.80329222 33680 STUDSAT 1 36801U 10035G 11054.79354943 .00001487 00000-0 20342-3 0 01471 2 36801 098.1153 121.7264 0013016 272.4162 087.5559 14.80035966033529 RAX 1 37223U 0 11047.27696737 .00000210 00000-0 37394-4 0 00845 2 37223 071.9744 305.5778 0020243 156.1195 204.0952 14.77236729013032 OOREOS 1 37224U 10062C 11043.43618410 .00000219 00000-0 38954-4 0 00810 2 37224 071.9758 314.1598 0019424 162.0076 198.1778 14.76892599012453 NANOSALD 1 37225U 0 11053.18324610 .00054584 00000-0 72853-2 0 00482 2 37225 071.9732 292.6219 0023333 099.1733 261.2301 14.79073791005005 FAST1-2 1 37227U 0 11054.50853287 .00000207 00000-0 37704-4 0 00872 2 37227 071.9737 289.8955 0016378 137.2224 223.0215 14.76395354014084 NOAA-10 1 16969U 86073A 11054.65656686 -.00000035 00000-0 36046-5 0 04060 2 16969 098.6314 085.9239 0011979 193.8242 166.2596 14.27444681271451 NOAA-11 1 19531U 88089A 11054.77299232 -.00000007 00000-0 18725-4 0 04130 2 19531 098.7533 144.3782 0011564 148.5153 211.6712 14.14904758156712 NOAA-12 1 21263U 91032A 11054.81518755 -.00000127 00000-0 -34889-4 0 09088 2 21263 098.7566 072.8291 0012967 152.9824 207.2031 14.25684308028255 MET-3/5 1 21655U 91056A 11055.54847648 .00000051 00000-0 10000-3 0 461 2 21655 082.5585 130.3631 0014825 079.8753 280.4063 13.17028481938895 MET-2/21 1 22782U 93055A 11054.50816689 -.00000030 00000-0 -40462-4 0 00285 2 22782 082.5445 053.0667 0023906 059.7251 300.6266 13.83652420882833 OKEAN-4 1 23317U 94066A 11054.81203176 .00000384 00000-0 44142-4 0 4821 2 23317 082.5400 119.0009 0023468 129.9167 230.4135 14.82946392883741 NOAA-14 1 23455U 94089A 11054.94503405 .00000023 00000-0 35781-4 0 03920 2 23455 098.8566 138.6891 0008597 239.7546 120.2759 14.13807029833076 NOAA-15 1 25338U 98030A 11054.83005891 .00000101 00000-0 61942-4 0 07206 2 25338 098.6464 042.5819 0011568 064.5795 295.6558 14.24885515664588 RESURS 1 25394U 98043A 11054.64784138 -.00000001 00000-0 17274-4 0 07332 2 25394 098.2994 063.9253 0000956 165.7493 194.3707 14.24223896656143 FENGYUN1 1 25730U 99025A 11055.44194105 .00000553 00000-0 34696-3 0 2652 2 25730 098.8079 019.1616 0022103 270.1006 089.7630 14.08505604607197 OKEAN-0 1 25860U 99039A 11055.79564505 .00000191 00000-0 36692-4 0 2381 2 25860 097.8695 025.4281 0001488 045.8381 314.2940 14.73714577624101 NOAA-16 1 26536U 00055A 11054.89057462 -.00000029 00000-0 95912-5 0 02002 2 26536 099.1526 083.0708 0010322 355.1200 004.9844 14.12598846537367 NOAA-17 1 27453U 02032A 11054.78958925 .00000226 00000-0 11565-3 0 01962 2 27453 098.3948 099.6288 0012615 119.1959 241.0471 14.24239757450514 NOAA-18 1 28654U 05018A 11054.82134215 .00000076 00000-0 66502-4 0 06809 2 28654 098.9839 005.7689 0015192 065.1317 295.1427 14.11439647296938 NOAA-19 1 33591U 09005A 11054.93528720 .00000006 00000-0 27352-4 0 08754 2 33591 098.8169 357.0540 0013441 299.4813 060.5006 14.11132658105417 HUBBLE 1 20580U 90037B 11055.10470320 .00000915 00000-0 56921-4 0 7173 2 20580 028.4713 035.0381 0002994 359.4486 000.6204 15.01175986942645 ISS 1 25544U 98067A 11056.06484444 .00017128 00000-0 12835-3 0 8964 2 25544 051.6462 015.9176 0004433 356.1322 100.6673 15.72757947703255 CO-58 1 28895U 05043F 11055.60605558 .00000315 00000-0 74952-4 0 8080 2 28895 097.9830 296.2431 0016942 211.4125 148.6069 14.60014039283819 FALCON 1 30776U 07006E 11055.88732147 .00001453 00000-0 10561-3 0 291 2 30776 035.4350 309.5735 0001217 255.8705 104.1869 15.04148204218122 MAST 1 31126U 07012K 11055.63639133 .00000086 00000-0 29550-4 0 922 2 31126 097.9069 089.1631 0094645 160.4862 199.9970 14.53677189204739 CAPE1 1 31130U 07012P 11055.65455022 .00000146 00000-0 44038-4 0 1120 2 31130 097.9117 086.1218 0103080 170.1423 190.1769 14.52295048204302 COMPASS 1 32787U 08021E 11054.66964655 .00000691 00000-0 93294-4 0 09195 2 32787 097.8598 120.5526 0015503 182.9124 177.2042 14.82155050152740 AAUSAT2 1 32788U 08021F 11054.64686416 .00000650 00000-0 87756-4 0 09078 2 32788 097.8599 120.7180 0015016 184.0444 176.0636 14.82319863152758 DO-64 1 32789U 08021G 11055.76624639 .00001306 00000-0 16844-3 0 9249 2 32789 097.8685 122.6279 0015600 178.2542 181.8687 14.82624039152921 CO-66 1 32791U 08021J 11055.67713868 .00000548 00000-0 75736-4 0 9080 2 32791 097.8597 121.5138 0015924 178.8254 181.3006 14.81894744152845 RS-30 1 32953U 08025A 11055.54337508 .00000010 00000-0 00000 0 0 4999 2 32953 082.4966 232.7454 0018093 272.7010 087.1997 12.43010627125090 TACSAT-3 1 35001U 09028A 11055.61242861 .00009225 00000-0 19384-3 0 5127 2 35001 040.4542 134.4454 0021377 092.4859 267.8402 15.45046996 99648 PHARMSAT 1 35002U 09028B 11055.57086067 .00009086 00000-0 18951-3 0 4771 2 35002 040.4680 132.1755 0023513 096.4554 263.8943 15.45226919 99664 HAWKSAT1 1 35003U 09028C 11055.59645682 .00024504 00000-0 38584-3 0 5236 2 35003 040.4595 115.4846 0022844 126.4088 233.8839 15.52660707 99854 CP6 1 35004U 09028D 11055.47596947 .00030080 00000-0 43210-3 0 5275 2 35004 040.4605 111.8163 0021817 133.1705 227.0885 15.55119280 99875 AEROCUB3 1 35005U 09028E 11006.09222617 .14049365 73043-5 82692-3 0 6103 2 35005 040.4461 021.7975 0025578 084.1677 280.7191 16.39196088 92544 METEOR-M 1 35865U 09049A 11055.69786802 .00000176 00000-0 10000-3 0 1313 2 35865 098.7219 112.2101 0002819 013.3527 346.7676 14.21834628 74609 RS-38 1 35869U 09049E 11055.71143031 .00000177 00000-0 10000-3 0 1424 2 35869 098.7200 112.2653 0004844 006.4233 353.6970 14.22000714 74619 /EX
participants (1)
-
Ray Hoad